Regional Weather Roundup
Issued by NWS

Home | Current Version | Previous Version | Text Only | Print | Product List | Glossary Off
Versions: 1 2 3 4 5 6 7 8 9 10 11 12 13 14 15 16 17 18 19 20 21 22 23 24 25 26 27 28 29 30 31 32 33 34 35 36 37 38 39 40 41 42 43 44 45 46 47 48 49 50

000
ASUS43 KLMK 271010
RWRKY
KENTUCKY REGIONAL WEATHER ROUNDUP
NATIONAL WEATHER SERVICE LOUISVILLE KY
600 AM EDT THU APR 27 2017

NOTE "FAIR" INDICATES FEW OR NO CLOUDS BELOW 12,000 FEET
WITH NO SIGNIFICANT WEATHER AND/OR OBSTRUCTIONS TO VISIBILITY.

KYZ001>023-026-027-061>063-070>075-271100-
WESTERN AND SOUTH CENTRAL KENTUCKY

CITY           SKY/WX    TMP DP  RH WIND       PRES   REMARKS
PADUCAH        CLOUDY    52  48  86 W13       29.63R
HENDERSON      LGT RAIN  57  54  88 W21       29.56R
OWENSBORO      CLOUDY    62  58  86 S12       29.55R
HOPKINSVILLE   MOCLDY    62  61  97 S8        29.59R
BOWLING GREEN  CLOUDY    63  62  97 SW8       29.60R
GLASGOW        CLOUDY   N/A N/A N/A S3        29.59R
$$

KYZ024-025-028>034-038-045-046-053-271100-
NORTH CENTRAL KENTUCKY

CITY           SKY/WX    TMP DP  RH WIND       PRES   REMARKS
LOUISVILLE/SDF CLOUDY    65  58  78 S12       29.56F
LOUISVILLE/LOU CLOUDY    64  59  83 S6        29.57R
FORT KNOX      LGT RAIN  63  57  82 S5        29.55F
$$

KYZ035>037-039>044-047>052-055>060-089>105-271100-
NORTHEAST KENTUCKY

CITY           SKY/WX    TMP DP  RH WIND       PRES   REMARKS
LEXINGTON      CLOUDY    68  57  68 SW7       29.63S
COVINGTON      CLOUDY    64  52  64 SE12      29.57F
FRANKFORT      LGT RAIN  65  54  67 S7        29.60F
$$

KYZ054-064>069-076>088-106>120-271100-
SOUTHEAST KENTUCKY

CITY           SKY/WX    TMP DP  RH WIND       PRES   REMARKS
JACKSON        CLOUDY    65  56  72 VRB5      29.70S
LONDON         CLOUDY    69  52  54 S8        29.69S
SOMERSET       RAIN      68  54  60 S13G18    29.69F
MIDDLESBORO    CLOUDY    69  54  57 S9G20     29.72S
MONTICELLO     RAIN      64  59  83 SE15      29.65F
$$





USA.gov is the U.S. government's official web portal to all federal, state and local government web resources and services.